NKS2016 KFLL-KJFK

Flight info

Callsign NKS2016
Flight time N/A
Altitude 37000
Route FEALX2 ETECK ROWSY Y309 FLRDA SAGGY CHIEZ Q161 KALDA Q108 SIE CAMRN5
Aircraft A321/M-SDE3FGHIRWY/LB1

Departure

Time 2026-05-03 22:52
Airport Fort Lauderdale Hollywood International Airport (KFLL)

Arrival

Time N/A
Airport John F. Kennedy International Airport (KJFK)
Time Latitude Longitude Altitude Speed Heading
2026-05-03 21:37 26.07284 -80.14698 25 ft 0 kts 45°
2026-05-03 21:55 26.07274 -80.14709 23 ft 4 kts 39°
2026-05-03 21:56 26.07264 -80.14717 23 ft 0 kts 30°
2026-05-03 21:58 26.07265 -80.14717 23 ft 0 kts 30°
2026-05-03 21:59 26.07266 -80.14717 23 ft 0 kts 25°
2026-05-03 21:59 26.07241 -80.14729 23 ft 7 kts 17°
2026-05-03 21:59 26.07220 -80.14729 23 ft 0 kts 295°
2026-05-03 22:27 26.07228 -80.14757 22 ft 10 kts 270°
2026-05-03 22:28 26.07164 -80.14817 23 ft 13 kts 221°
2026-05-03 22:28 26.07118 -80.14873 21 ft 6 kts 262°
2026-05-03 22:28 26.07139 -80.14918 22 ft 7 kts 307°
2026-05-03 22:28 26.07171 -80.14961 21 ft 8 kts 294°
2026-05-03 22:29 26.07151 -80.15012 22 ft 8 kts 225°
2026-05-03 22:29 26.07112 -80.15056 22 ft 9 kts 225°
2026-05-03 22:29 26.07058 -80.15115 24 ft 13 kts 219°
2026-05-03 22:29 26.06972 -80.15130 24 ft 6 kts 180°
2026-05-03 22:30 26.06918 -80.15130 24 ft 12 kts 181°
2026-05-03 22:30 26.06885 -80.15130 24 ft 8 kts 180°
2026-05-03 22:30 26.06825 -80.15131 23 ft 7 kts 180°
2026-05-03 22:30 26.06767 -80.15131 23 ft 3 kts 180°
2026-05-03 22:31 26.06746 -80.15131 23 ft 10 kts 180°
2026-05-03 22:31 26.06707 -80.15139 24 ft 2 kts 209°
2026-05-03 22:31 26.06696 -80.15163 24 ft 5 kts 253°
2026-05-03 22:31 26.06695 -80.15222 25 ft 12 kts 270°
2026-05-03 22:32 26.06695 -80.15306 26 ft 19 kts 270°
2026-05-03 22:32 26.06695 -80.15420 26 ft 14 kts 271°
2026-05-03 22:32 26.06696 -80.15481 25 ft 3 kts 271°
2026-05-03 22:32 26.06697 -80.15500 25 ft 0 kts 271°
2026-05-03 22:33 26.06697 -80.15501 25 ft 1 kts 271°
2026-05-03 22:33 26.06698 -80.15538 25 ft 9 kts 271°
2026-05-03 22:34 26.06698 -80.15584 24 ft 0 kts 270°
2026-05-03 22:42 26.06698 -80.15600 26 ft 5 kts 270°
2026-05-03 22:42 26.06699 -80.15627 24 ft 3 kts 270°
2026-05-03 22:42 26.06699 -80.15636 24 ft 1 kts 270°
2026-05-03 22:43 26.06699 -80.15664 23 ft 8 kts 270°
2026-05-03 22:44 26.06699 -80.15673 23 ft 2 kts 270°
2026-05-03 22:44 26.06699 -80.15697 23 ft 1 kts 270°
2026-05-03 22:44 26.06699 -80.15730 23 ft 3 kts 270°
2026-05-03 22:44 26.06699 -80.15760 23 ft 4 kts 270°
2026-05-03 22:45 26.06699 -80.15764 23 ft 0 kts 270°
2026-05-03 22:50 26.06699 -80.15769 23 ft 2 kts 270°
2026-05-03 22:50 26.06697 -80.15793 22 ft 4 kts 261°
2026-05-03 22:50 26.06684 -80.15811 23 ft 0 kts 218°
2026-05-03 22:51 26.06681 -80.15814 24 ft 2 kts 217°
2026-05-03 22:51 26.06656 -80.15824 21 ft 5 kts 186°
2026-05-03 22:51 26.06608 -80.15820 20 ft 7 kts 158°
2026-05-03 22:51 26.06590 -80.15769 21 ft 7 kts 94°
2026-05-03 22:52 26.06589 -80.15554 26 ft 69 kts 91°
2026-05-03 22:52 26.06587 -80.14697 20 ft 149 kts 90°
2026-05-03 22:52 26.06606 -80.13416 563 ft 173 kts 87°
2026-05-03 22:52 26.06637 -80.12036 1445 ft 183 kts 86°
2026-05-03 22:53 26.06691 -80.10644 2308 ft 174 kts 85°
2026-05-03 22:53 26.06761 -80.09271 2732 ft 186 kts 88°
2026-05-03 22:53 26.06768 -80.07747 2927 ft 208 kts 90°
2026-05-03 22:53 26.06756 -80.06078 3056 ft 230 kts 90°
2026-05-03 22:54 26.06746 -80.04202 3229 ft 253 kts 90°
2026-05-03 22:54 26.06752 -80.02162 3576 ft 272 kts 86°
2026-05-03 22:54 26.07283 -80.00134 4204 ft 279 kts 57°
2026-05-03 22:54 26.08472 -79.98406 4873 ft 285 kts 49°
2026-05-03 22:55 26.09745 -79.96693 5569 ft 290 kts 49°
2026-05-03 22:55 26.11045 -79.94956 6294 ft 294 kts 48°
2026-05-03 22:55 26.12366 -79.93191 6968 ft 299 kts 49°
2026-05-03 22:55 26.13686 -79.91421 7646 ft 303 kts 49°
2026-05-03 22:56 26.15037 -79.89600 8355 ft 307 kts 49°
2026-05-03 22:56 26.16384 -79.87745 9055 ft 310 kts 51°
2026-05-03 22:56 26.17686 -79.85810 9762 ft 314 kts 52°
2026-05-03 22:56 26.18973 -79.83819 10270 ft 325 kts 53°
2026-05-03 22:57 26.20331 -79.81694 10423 ft 348 kts 53°
2026-05-03 22:57 26.21775 -79.79438 10708 ft 364 kts 53°
2026-05-03 22:57 26.23265 -79.77126 11233 ft 371 kts 52°
2026-05-03 22:57 26.24785 -79.74776 11834 ft 376 kts 52°
2026-05-03 22:58 26.26323 -79.72404 12450 ft 380 kts 52°
2026-05-03 22:58 26.27880 -79.70005 13060 ft 384 kts 52°
2026-05-03 22:58 26.29471 -79.67662 13647 ft 387 kts 47°
2026-05-03 22:58 26.31336 -79.65482 14186 ft 390 kts 44°
2026-05-03 22:59 26.33236 -79.63306 14714 ft 393 kts 44°
2026-05-03 22:59 26.35150 -79.61114 15254 ft 397 kts 43°
2026-05-03 22:59 26.37089 -79.58892 15782 ft 401 kts 43°
2026-05-03 22:59 26.39042 -79.56649 16319 ft 405 kts 43°
2026-05-03 23:00 26.41008 -79.54387 16846 ft 408 kts 43°
2026-05-03 23:00 26.42997 -79.52099 17365 ft 412 kts 43°
2026-05-03 23:00 26.45004 -79.49787 17879 ft 416 kts 43°
2026-05-03 23:00 26.47028 -79.47455 18378 ft 420 kts 43°
2026-05-03 23:01 26.49069 -79.45100 18819 ft 425 kts 43°
2026-05-03 23:01 26.51131 -79.42716 19233 ft 429 kts 43°
2026-05-03 23:01 26.53183 -79.40339 19670 ft 432 kts 43°
2026-05-03 23:01 26.55379 -79.38036 20108 ft 433 kts 35°
2026-05-03 23:02 26.57867 -79.36150 20539 ft 433 kts 27°
2026-05-03 23:02 26.60456 -79.34405 20984 ft 436 kts 27°
2026-05-03 23:02 26.63067 -79.32642 21422 ft 440 kts 27°
2026-05-03 23:02 26.65695 -79.30863 21852 ft 444 kts 27°
2026-05-03 23:03 26.68346 -79.29065 22284 ft 448 kts 27°
2026-05-03 23:03 26.71018 -79.27247 22701 ft 451 kts 27°
2026-05-03 23:03 26.73710 -79.25409 23110 ft 455 kts 27°
2026-05-03 23:03 26.76419 -79.23553 23532 ft 459 kts 27°
2026-05-03 23:04 26.79117 -79.21709 23865 ft 462 kts 27°
2026-05-03 23:04 26.81873 -79.19827 24186 ft 465 kts 27°
2026-05-03 23:04 26.84642 -79.17933 24531 ft 468 kts 27°
2026-05-03 23:04 26.87434 -79.16026 24867 ft 471 kts 27°
2026-05-03 23:05 26.90237 -79.14111 25216 ft 473 kts 27°
2026-05-03 23:05 26.93055 -79.12184 25542 ft 476 kts 27°
2026-05-03 23:05 26.95888 -79.10241 25877 ft 479 kts 27°
2026-05-03 23:05 26.97626 -79.09048 26077 ft 480 kts 27°